Temperature
21 21 21 21 18 17 19 20 20 20 21 21 21 20 19 18 18 17 18 18 18 18 17 17 17 17 17 17 17 17 17 17 17 17 17 17 17 17 17 17 17 17 18 18 18 18 18 18 18
21 21 21 20 17 17 19 20 20 21 21 21 21 20 19 18 18 18 18 18 18 18 18 17 17 17 17 17 17 17 17 17 17 17 17 17 17 17 17 17 17 17 17 17 17 18 18 18 18
21 21 21 17 18 18 20 20 20 22 22 22 21 20 19 18 18 18 18 18 18 18 18 17 17 17 17 17 17 17 17 17 17 17 17 17 17 17 17 17 17 17 17 17 17 17 17 17 17
21 21 20 18 19 20 20 21 21 21 22 21 20 19 19 19 19 18 18 18 18 18 18 17 17 17 17 17 17 17 17 17 17 17 17 17 17 17 17 17 17 17 17 17 17 17 17 17 17
21 21 18 18 20 20 20 22 22 21 21 20 20 18 18 19 19 18 18 18 18 18 18 17 17 17 17 17 17 17 17 17 17 17 17 17 17 17 17 17 17 17 17 17 17 17 17 17 17
21 19 18 18 20 21 21 22 22 21 20 20 20 18 18 18 18 18 18 18 18 18 18 17 17 17 17 17 17 17 17 17 17 17 17 17 17 17 17 17 17 17 17 17 17 17 17 17 17
21 18 18 19 20 21 21 22 21 21 21 21 20 18 18 18 18 18 18 18 18 18 18 17 17 17 17 17 17 17 17 17 17 17 17 17 17 17 17 17 17 17 17 17 17 17 17 17 17
22 18 19 19 20 21 22 22 22 22 21 21 21 19 18 19 18 18 18 18 18 18 18 18 17 17 17 17 17 17 17 17 17 17 17 17 17 17 16 16 17 16 16 16 16 16 16 16 16
22 18 18 20 20 21 22 22 22 22 21 21 21 20 20 19 19 18 18 18 18 18 18 17 17 17 17 17 17 17 16 16 16 16 16 16 16 16 16 16 16 16 16 16 16 16 16 16 16
21 18 20 21 21 21 22 22 22 21 20 20 20 20 20 19 19 19 18 18 18 18 18 17 17 17 17 17 17 17 16 16 16 16 16 16 16 16 16 16 16 16 16 16 16 16 16 16 16
21 20 21 22 23 23 22 22 22 21 19 20 20 20 19 19 19 19 18 18 18 18 18 18 17 17 17 17 17 17 16 16 16 16 16 16 16 16 16 16 16 16 16 16 16 16 16 16 16
22 22 23 23 24 23 23 22 22 21 21 22 21 21 20 19 19 19 19 18 18 18 18 18 17 17 17 17 17 16 16 16 16 16 16 16 16 16 16 16 16 16 16 16 16 16 16 16 16
22 22 23 23 24 23 23 22 22 22 22 22 21 20 20 20 19 19 19 19 18 18 18 18 17 17 17 17 17 16 16 16 16 16 16 16 16 16 16 16 16 16 16 16 16 16 16 16 16
23 23 23 23 23 23 22 22 21 21 22 21 21 20 20 20 20 19 19 19 18 18 18 18 17 17 17 17 17 16 16 16 16 16 16 16 16 16 16 16 16 16 15 15 16 16 16 15 15
23 22 22 22 23 23 22 21 20 22 21 21 21 20 20 20 20 19 19 19 19 18 18 18 17 17 17 17 17 16 16 16 16 16 16 16 16 16 16 16 16 15 15 15 15 15 15 15 15
22 21 20 21 22 22 21 20 20 22 21 21 21 20 20 20 20 20 19 19 19 18 18 18 18 17 17 17 16 16 16 16 16 16 16 16 16 16 16 15 15 15 15 15 15 15 15 15 15
20 19 20 21 22 22 21 20 20 22 21 20 20 20 20 20 20 20 19 19 19 19 18 18 18 17 17 17 16 16 16 16 16 16 16 16 15 15 15 15 15 15 15 15 15 15 15 15 15
20 20 20 21 22 21 20 20 20 21 21 20 20 20 20 20 20 20 20 19 19 19 18 18 18 17 17 17 16 16 16 16 16 16 15 15 15 15 15 15 15 15 15 15 14 14 14 14 14
21 21 20 21 22 21 20 20 19 20 20 19 20 20 20 20 20 20 20 19 19 18 18 18 18 17 17 17 16 16 16 16 16 16 15 15 15 15 15 15 15 15 15 14 14 14 14 14 14
22 21 21 21 22 22 20 19 19 19 19 20 20 20 20 20 20 20 19 19 19 19 18 18 18 17 17 17 16 16 16 16 15 15 15 15 15 15 15 15 15 15 14 14 14 14 14 14 14
22 21 21 21 21 21 20 19 19 19 20 20 20 20 20 20 20 20 19 19 19 19 18 18 18 17 17 17 16 16 16 15 15 15 15 15 15 15 15 15 15 14 14 14 14 14 14 14 14
21 22 22 22 20 19 20 18 19 18 19 19 20 20 20 20 20 20 20 19 19 19 18 18 18 17 17 17 16 16 16 15 15 15 15 15 15 15 15 14 14 14 14 14 14 14 14 14 14
22 22 22 22 20 19 19 18 18 18 19 19 19 20 20 20 20 20 20 19 19 19 18 18 18 17 17 17 16 16 16 15 15 15 15 15 15 15 14 14 14 14 14 14 14 14 14 14 14
22 21 20 18 17 18 19 18 18 17 19 19 19 20 20 20 20 20 20 19 19 19 18 18 18 17 17 17 16 16 16 15 15 15 15 15 15 14 14 14 14 14 14 14 14 14 14 14 14
21 18 17 18 17 17 19 19 18 19 20 20 19 20 21 21 20 20 19 19 19 19 18 18 18 17 17 16 16 16 15 15 15 15 15 15 15 14 14 14 14 14 14 14 14 14 14 13 13
21 18 17 18 17 17 18 18 19 20 21 21 21 21 20 21 20 20 20 19 19 19 18 18 17 17 17 16 16 16 15 15 15 15 15 15 15 14 14 14 14 14 14 14 14 14 13 13 13
21 19 18 17 18 18 17 19 20 20 20 20 20 20 20 20 20 20 20 19 19 19 18 18 17 17 17 16 16 15 15 15 15 15 14 14 14 14 14 14 14 14 14 14 14 13 13 13 13
21 19 17 17 18 17 18 18 18 19 19 19 19 19 20 20 20 20 20 19 19 19 18 18 17 17 17 16 16 16 15 15 15 14 14 14 14 14 14 14 14 14 14 13 13 13 13 13 13
20 20 18 16 16 17 17 17 19 19 19 19 19 20 20 20 20 20 20 19 19 19 18 18 17 17 16 16 16 15 15 15 15 14 14 14 14 14 14 14 14 14 13 13 13 13 13 13 13
20 20 18 17 17 16 16 17 19 19 19 19 19 20 20 20 20 20 20 19 19 19 18 18 17 17 16 16 16 15 15 15 15 14 14 14 14 14 14 14 14 13 13 13 13 13 13 13 13
Wind_Speed
2 0 3 3 5 5 3 0 2 3 4 4 7 9 8 6 5 5 3 5 8 6 5 6 7 7 7 6 6 7 7 7 8 8 8 8 8 8 8 9 9 9 10 10 10 10 11 11 10
1 1 3 4 5 4 1 1 3 3 5 5 7 7 7 5 4 5 3 6 9 8 7 7 8 7 7 7 7 7 8 8 8 8 8 8 8 8 8 9 9 9 10 10 10 10 10 10 10
0 1 3 4 4 4 3 2 3 3 4 4 4 5 5 4 4 4 5 8 9 7 7 8 9 8 7 7 7 7 8 8 8 8 8 7 8 8 9 9 9 10 10 10 9 10 10 10 10
3 4 5 5 5 2 5 3 4 5 4 5 6 5 4 3 4 5 7 9 9 6 7 8 9 8 7 7 7 7 7 7 8 8 8 8 9 9 9 9 10 10 10 10 10 10 10 10 10
4 4 5 4 3 2 2 3 5 6 4 4 7 6 3 2 5 7 8 9 9 6 7 8 9 8 7 7 7 7 7 7 7 8 8 9 9 9 9 10 10 10 10 10 10 10 10 10 10
4 5 4 2 3 2 2 4 6 7 6 6 6 5 2 2 5 6 7 7 7 7 7 7 8 8 7 7 7 7 7 7 7 7 7 8 9 9 9 9 9 9 9 9 9 9 9 10 10
4 4 3 3 3 3 3 4 5 6 5 3 6 5 2 2 4 6 6 6 6 7 6 5 6 7 6 6 6 6 6 6 6 7 7 7 8 9 9 9 9 9 9 9 8 8 9 9 10
5 4 3 2 3 2 2 3 5 6 3 3 5 7 5 6 5 6 5 5 5 5 5 4 4 4 5 5 5 5 6 6 6 7 7 7 7 8 8 8 8 8 9 9 8 8 8 8 9
4 5 2 2 3 2 3 4 2 3 5 3 3 6 6 8 6 6 4 3 4 4 4 4 4 3 4 4 3 4 5 5 6 6 7 6 6 6 6 7 7 7 7 7 7 7 7 8 9
5 4 3 3 4 4 4 4 4 4 4 4 4 4 8 8 8 7 5 4 4 4 4 4 4 4 4 3 3 3 3 4 4 4 5 5 5 5 5 6 7 8 7 7 7 7 7 7 8
4 5 3 2 4 6 4 3 4 6 3 5 7 9 9 8 7 7 5 4 4 4 4 4 4 4 3 3 3 2 3 3 4 4 4 4 4 4 4 4 4 5 7 7 7 8 7 7 6
3 3 3 3 3 4 4 4 3 5 7 8 11 12 10 9 8 7 7 5 5 4 4 4 5 5 4 4 3 3 3 3 3 3 5 5 3 2 3 3 4 5 5 6 6 6 8 8 8
3 2 2 3 3 3 4 4 4 4 6 7 10 11 10 10 9 7 6 6 6 5 3 4 5 5 4 4 3 3 3 3 4 4 5 6 4 2 3 3 4 5 6 6 5 6 6 6 7
3 2 1 3 3 2 4 2 2 5 6 8 10 10 10 10 9 7 6 6 6 5 4 4 5 5 5 4 3 2 3 4 5 4 5 6 5 4 4 3 4 5 6 7 6 6 5 5 5
1 2 2 2 3 3 4 1 3 5 7 9 9 9 9 8 9 9 8 8 7 7 6 5 6 5 5 4 3 3 4 5 4 4 6 7 7 6 5 4 3 4 7 8 7 6 6 5 5
2 2 1 5 3 4 6 4 7 4 9 9 9 8 8 8 9 8 9 7 7 7 7 6 7 6 5 4 4 4 4 5 4 5 6 7 7 8 6 4 3 5 6 6 4 4 4 4 4
2 1 4 5 4 3 4 5 7 5 10 10 9 8 7 7 6 7 8 8 8 8 8 7 6 6 5 4 4 4 4 4 4 5 5 6 7 8 7 4 3 5 5 3 4 4 4 4 4
4 3 4 5 4 3 3 6 5 5 8 9 8 8 8 8 8 8 8 8 8 8 7 7 6 6 5 4 4 3 3 2 3 4 4 5 6 7 7 5 4 5 4 3 3 4 4 3 3
4 3 5 6 5 3 4 5 5 4 5 7 7 8 9 9 8 7 8 8 8 7 7 7 7 5 5 3 3 3 2 1 1 2 4 5 6 7 6 4 4 4 4 3 4 3 4 3 2
3 3 5 5 3 2 3 4 4 4 7 10 11 10 11 8 6 6 7 8 8 8 8 7 7 6 5 4 3 3 3 2 1 1 3 4 5 6 6 4 3 3 4 4 4 4 3 1 2
4 4 5 5 3 2 1 4 4 4 3 5 7 8 9 10 10 9 8 8 8 8 9 8 7 6 5 4 3 3 3 2 2 1 1 1 3 4 6 5 4 3 3 4 3 4 4 2 0
5 5 4 2 1 3 2 3 7 4 3 5 6 7 8 8 9 9 9 9 9 9 8 8 7 7 5 5 5 5 4 3 3 2 1 0 2 3 5 5 5 4 3 4 3 3 2 3 2
6 4 2 1 2 2 2 2 6 2 4 7 7 8 8 9 10 11 11 11 9 8 8 7 8 6 5 6 6 6 4 2 2 1 2 1 0 1 2 4 4 4 3 3 3 3 3 3 3
1 4 6 5 4 2 4 4 5 4 8 7 7 8 8 8 9 9 9 8 7 7 7 7 7 6 5 6 6 6 5 4 4 2 2 1 1 0 1 2 3 2 2 2 3 3 3 3 2
5 5 4 5 3 5 3 3 6 6 6 8 9 9 8 9 9 9 9 8 8 8 8 8 8 6 6 6 6 6 6 6 6 4 4 3 2 2 3 2 2 2 2 2 2 2 2 2 2
2 7 5 3 4 5 4 2 5 4 3 5 7 7 7 8 9 10 11 10 10 9 9 9 9 7 7 7 6 5 6 5 4 4 4 4 3 3 3 3 3 3 3 3 3 2 2 2 2
3 3 6 5 1 2 4 4 5 2 2 3 4 5 6 8 9 10 10 10 10 10 10 10 9 7 7 7 6 5 5 5 5 4 4 3 3 3 3 4 3 3 3 3 3 2 2 1 2
5 5 5 3 1 2 4 4 4 4 3 3 4 5 5 5 7 9 9 10 10 9 9 8 9 9 8 7 7 6 6 6 5 4 4 4 4 3 4 4 4 3 3 2 2 1 1 1 1
2 2 4 4 4 4 3 6 5 7 6 6 6 6 6 7 8 8 8 8 8 7 7 7 7 7 7 7 6 6 5 5 5 4 5 4 3 4 4 4 4 4 4 3 3 3 2 2 1
5 5 6 4 3 4 3 7 6 5 5 5 6 6 6 7 7 7 7 6 6 7 7 7 7 7 7 7 6 6 5 5 5 4 4 4 4 4 4 4 4 4 4 4 4 4 3 3 2
Wind_Direction
285 16 88 60 54 56 75 76 117 64 57 55 70 82 84 73 94 134 219 144 140 141 137 123 114 105 98 92 90 83 77 74 70 74 76 78 80 84 90 92 94 97 96 96 93 91 90 89 90
10 69 63 60 78 80 34 192 111 111 137 117 80 84 80 77 97 124 143 144 142 139 136 128 120 112 105 97 94 87 81 76 73 72 75 78 81 88 93 94 95 95 96 94 92 90 91 90 90
329 78 76 67 89 133 144 204 139 103 108 100 77 59 79 111 123 148 162 146 134 134 138 133 125 119 113 105 100 93 87 82 78 76 77 80 83 90 97 97 97 94 94 93 90 90 91 92 90
65 46 57 74 91 139 144 160 125 107 71 68 95 66 51 94 144 152 142 134 132 139 142 135 127 123 118 110 105 101 95 88 84 84 82 82 87 91 94 99 98 95 95 95 93 92 91 90 89
69 73 58 66 96 114 122 117 104 98 98 87 94 95 76 36 114 120 127 131 137 144 145 143 137 131 124 116 109 105 102 95 90 89 84 84 87 90 93 96 96 96 95 94 93 91 91 91 91
57 68 77 84 102 102 78 92 91 92 103 108 102 111 126 151 123 132 128 130 140 146 150 149 144 140 133 125 115 107 105 102 97 95 91 88 87 89 92 97 98 99 99 98 94 92 91 93 94
104 88 109 127 102 94 116 103 100 109 109 121 128 114 149 183 160 141 124 119 130 142 147 151 147 146 143 136 124 113 108 106 101 97 94 94 91 90 93 97 101 105 106 102 97 92 91 94 92
125 98 75 97 113 126 136 114 122 117 121 121 122 136 176 206 174 128 114 109 120 135 141 144 147 144 144 137 132 125 117 110 105 99 94 91 91 93 94 98 100 106 108 103 97 93 90 91 91
92 80 99 170 147 161 134 113 110 100 107 82 101 150 168 161 137 116 103 92 118 136 149 145 145 148 149 143 133 119 115 108 105 97 92 87 83 88 95 96 100 101 102 98 93 88 87 87 89
90 114 189 192 168 154 133 128 138 109 101 97 86 104 130 137 136 137 140 143 142 152 154 149 145 141 146 141 114 97 98 103 94 97 96 92 89 92 95 95 95 93 88 89 85 78 79 82 82
135 158 179 168 149 138 134 135 136 132 141 170 161 154 149 141 145 152 158 156 154 157 147 145 147 135 136 124 121 106 100 96 87 92 108 107 93 89 80 80 78 77 76 77 75 68 73 82 87
128 175 160 159 142 137 150 151 136 156 189 186 167 159 156 151 161 166 165 156 148 142 147 146 140 131 133 120 115 112 105 100 96 100 106 111 102 89 89 84 77 79 79 79 77 78 79 81 85
134 180 161 159 142 148 141 149 156 187 189 160 146 150 159 166 173 175 167 157 148 138 134 134 140 136 127 110 108 103 99 109 115 104 100 106 103 94 91 88 88 85 83 84 78 80 81 80 80
180 160 178 168 162 158 145 180 146 213 173 149 147 160 170 173 173 167 165 159 160 155 147 131 130 132 123 117 111 101 100 102 102 100 99 102 109 104 98 87 85 84 87 90 91 88 85 81 84
123 76 339 241 188 193 137 344 234 218 160 156 162 171 174 174 169 171 176 170 167 160 146 133 131 122 124 123 116 105 101 100 93 96 101 103 105 105 102 98 90 93 96 94 91 84 83 79 78
38 59 308 272 207 197 137 231 258 210 161 170 176 179 179 180 181 182 178 170 162 153 145 142 134 128 128 122 113 105 96 94 92 93 98 104 107 110 105 101 95 99 98 97 95 88 84 74 73
13 232 248 278 233 184 162 227 250 210 171 181 184 182 181 183 187 189 181 170 159 153 148 141 135 137 137 127 113 108 93 87 87 90 93 103 109 115 112 110 105 101 94 91 103 95 100 95 81
235 232 249 254 248 180 202 241 257 214 177 183 183 180 181 183 191 188 178 166 155 152 146 138 134 136 133 119 102 92 79 71 76 85 98 108 111 116 114 113 110 107 99 86 94 97 90 100 101
212 216 256 258 244 195 230 245 246 222 185 186 191 189 191 197 201 183 171 158 152 148 144 144 141 144 135 126 124 126 125 111 73 84 98 104 118 122 119 118 113 115 115 119 117 107 92 77 89
227 238 267 281 264 195 242 265 247 219 202 195 192 194 194 189 183 178 165 160 162 160 161 156 154 156 154 154 159 155 150 147 133 86 90 102 114 126 132 132 138 135 123 115 114 113 104 96 92
255 229 238 251 314 355 95 318 286 269 219 200 197 193 188 184 183 180 171 172 166 163 165 164 162 157 157 149 122 101 80 64 58 60 81 129 127 126 135 141 143 146 141 144 145 140 136 150 25
259 249 232 235 62 284 157 266 279 248 232 207 200 188 185 180 178 176 172 174 173 173 166 160 161 158 155 146 141 142 147 169 199 193 193 188 129 128 138 143 146 150 149 156 169 156 156 151 168
237 253 252 246 165 300 266 186 282 243 218 221 209 195 187 182 178 177 179 181 177 167 163 162 162 161 158 154 156 151 151 175 176 162 155 149 93 132 142 142 144 151 157 167 170 157 157 161 166
201 30 20 40 77 298 246 177 268 231 211 209 203 198 187 180 180 181 179 171 166 160 157 157 160 166 165 158 157 157 160 160 150 160 174 183 188 241 190 152 145 153 159 172 176 170 170 177 173
78 74 21 356 6 263 267 175 249 248 220 195 188 192 188 178 175 173 170 170 170 166 166 166 165 172 174 168 171 173 173 170 172 176 182 181 186 212 215 171 161 163 173 171 159 156 167 175 177
182 140 155 214 242 283 333 239 261 271 229 186 176 174 175 180 178 177 178 177 177 175 173 172 175 179 179 177 183 181 176 173 180 184 182 188 199 210 203 182 172 172 170 167 154 153 184 172 189
157 183 178 159 233 284 292 288 306 353 72 131 146 154 180 188 183 181 181 180 179 179 181 181 179 180 182 182 182 181 180 177 182 186 182 190 200 200 191 183 176 171 169 170 164 174 205 188 206
164 159 97 111 168 272 291 268 240 239 214 189 182 187 198 190 183 183 184 186 185 184 184 180 180 185 186 185 185 185 186 188 186 179 184 194 200 197 187 186 185 182 178 166 161 177 194 156 188
176 144 128 138 162 170 255 271 240 215 209 197 205 201 195 185 182 184 188 190 185 180 179 182 186 185 185 187 186 184 188 189 183 184 195 197 198 194 191 190 189 185 185 180 169 183 179 168 193
183 185 151 160 235 186 198 265 278 215 206 193 201 205 204 192 181 180 179 178 178 183 186 189 190 190 194 189 182 186 187 184 185 194 201 195 195 193 190 184 185 188 187 183 178 184 182 172 185
Height
1521 1520 1520 1520 1523 1534 1537 1531 1526 1524 1524 1524 1523 1524 1527 1530 1534 1540 1537 1534 1534 1533 1532 1531 1530 1529 1528 1527 1526 1525 1525 1524 1523 1522 1522 1521 1521 1521 1521 1521 1522 1522 1522 1523 1523 1523 1524 1524 1525
1520 1520 1521 1521 1532 1545 1540 1530 1527 1524 1524 1525 1525 1526 1528 1531 1533 1534 1534 1534 1534 1534 1533 1532 1531 1529 1528 1527 1527 1526 1525 1524 1523 1523 1522 1521 1521 1521 1521 1522 1522 1523 1523 1524 1524 1524 1525 1525 1525
1521 1520 1522 1525 1535 1542 1537 1528 1525 1524 1524 1524 1527 1528 1530 1533 1534 1534 1535 1535 1535 1534 1533 1532 1531 1530 1529 1528 1527 1526 1526 1525 1524 1523 1522 1521 1521 1521 1521 1522 1523 1524 1524 1525 1525 1525 1526 1526 1526
1521 1522 1523 1530 1535 1531 1528 1526 1524 1525 1525 1526 1527 1530 1532 1534 1534 1535 1535 1535 1535 1535 1534 1533 1532 1531 1530 1529 1528 1527 1527 1526 1525 1523 1523 1522 1522 1522 1522 1523 1524 1524 1525 1525 1526 1526 1527 1527 1527
1521 1522 1529 1536 1533 1528 1525 1524 1524 1525 1526 1528 1528 1532 1534 1535 1535 1535 1535 1535 1535 1535 1535 1534 1533 1532 1531 1530 1529 1528 1528 1527 1526 1525 1524 1524 1523 1523 1524 1524 1525 1526 1526 1526 1527 1527 1528 1528 1528
1522 1524 1537 1541 1533 1527 1525 1525 1525 1526 1528 1529 1530 1532 1535 1536 1536 1536 1536 1536 1536 1535 1535 1535 1534 1533 1532 1532 1531 1530 1529 1528 1528 1527 1526 1526 1526 1526 1526 1526 1526 1527 1527 1528 1528 1529 1529 1529 1529
1523 1528 1536 1536 1534 1530 1527 1526 1526 1527 1528 1530 1530 1533 1535 1536 1536 1536 1536 1536 1536 1536 1536 1535 1535 1534 1533 1533 1532 1531 1530 1530 1529 1528 1528 1527 1527 1527 1527 1528 1528 1528 1529 1529 1529 1530 1530 1530 1531
1522 1528 1534 1535 1533 1531 1526 1526 1526 1527 1528 1530 1530 1532 1534 1535 1536 1536 1537 1537 1537 1537 1537 1536 1536 1535 1534 1534 1533 1532 1532 1531 1530 1530 1529 1529 1529 1529 1529 1529 1529 1530 1530 1530 1531 1531 1531 1532 1532
1523 1532 1538 1533 1531 1529 1526 1526 1527 1528 1528 1529 1530 1531 1532 1534 1535 1536 1537 1537 1537 1537 1537 1537 1536 1536 1535 1535 1534 1533 1533 1532 1532 1531 1531 1530 1530 1530 1530 1531 1531 1531 1531 1531 1532 1532 1532 1532 1533
1523 1534 1531 1526 1525 1526 1525 1526 1527 1529 1529 1530 1531 1531 1532 1533 1535 1535 1536 1537 1537 1537 1537 1537 1537 1536 1536 1535 1535 1534 1534 1534 1533 1533 1532 1532 1532 1532 1532 1532 1532 1532 1532 1532 1532 1533 1533 1533 1534
1523 1527 1525 1524 1523 1524 1525 1526 1526 1528 1530 1530 1530 1531 1532 1533 1534 1535 1536 1537 1537 1537 1537 1537 1537 1537 1536 1536 1536 1535 1535 1534 1534 1534 1533 1533 1533 1533 1533 1533 1533 1533 1533 1533 1534 1534 1534 1534 1535
1523 1523 1523 1523 1523 1524 1524 1525 1526 1526 1527 1527 1528 1529 1531 1532 1534 1534 1535 1536 1537 1537 1537 1537 1537 1537 1537 1536 1536 1536 1535 1535 1535 1534 1534 1534 1534 1533 1534 1534 1534 1534 1534 1535 1535 1535 1535 1535 1536
1523 1523 1522 1522 1522 1523 1523 1524 1525 1525 1526 1527 1527 1529 1530 1532 1533 1534 1535 1536 1536 1537 1537 1537 1537 1537 1537 1537 1536 1536 1536 1536 1535 1535 1535 1535 1534 1534 1534 1534 1535 1535 1535 1536 1536 1536 1536 1536 1537
1522 1522 1522 1522 1522 1522 1523 1525 1525 1525 1525 1526 1526 1528 1529 1530 1532 1533 1534 1535 1535 1536 1537 1537 1537 1537 1537 1537 1536 1536 1536 1536 1536 1536 1535 1535 1535 1535 1535 1535 1535 1535 1536 1536 1536 1537 1537 1537 1537
1522 1523 1524 1522 1521 1522 1523 1527 1524 1522 1524 1525 1526 1527 1528 1529 1531 1532 1533 1534 1535 1536 1536 1537 1537 1537 1537 1537 1537 1537 1537 1537 1536 1536 1536 1536 1536 1536 1535 1535 1535 1536 1536 1537 1537 1537 1537 1537 1538
1523 1528 1532 1524 1520 1521 1526 1533 1522 1521 1522 1523 1524 1526 1527 1528 1530 1531 1532 1533 1534 1535 1536 1536 1537 1537 1537 1537 1537 1537 1537 1537 1537 1537 1536 1536 1536 1536 1536 1536 1536 1536 1536 1537 1537 1537 1537 1538 1538
1531 1537 1534 1526 1519 1519 1524 1527 1519 1519 1520 1521 1523 1524 1525 1527 1529 1530 1531 1532 1533 1534 1535 1535 1536 1536 1536 1536 1537 1537 1537 1537 1537 1537 1537 1537 1536 1536 1536 1536 1536 1536 1536 1537 1537 1537 1537 1538 1538
1536 1535 1532 1528 1519 1519 1523 1523 1518 1517 1518 1519 1521 1522 1524 1525 1526 1528 1529 1531 1532 1533 1534 1535 1535 1536 1536 1536 1536 1537 1537 1537 1537 1537 1537 1537 1536 1536 1536 1536 1536 1536 1536 1537 1537 1538 1538 1538 1539
1525 1528 1530 1524 1516 1519 1522 1521 1518 1516 1517 1518 1519 1520 1521 1523 1525 1526 1528 1530 1531 1532 1533 1534 1534 1535 1535 1535 1536 1536 1536 1537 1537 1537 1537 1537 1536 1536 1536 1536 1536 1536 1536 1537 1537 1538 1538 1538 1539
1522 1527 1527 1521 1514 1517 1521 1520 1516 1515 1515 1514 1515 1517 1519 1521 1523 1525 1527 1528 1529 1530 1532 1533 1533 1534 1534 1535 1535 1536 1536 1536 1536 1536 1536 1536 1536 1536 1536 1536 1536 1536 1536 1537 1537 1537 1538 1538 1539
1521 1524 1524 1522 1517 1516 1521 1525 1519 1515 1513 1513 1514 1514 1516 1518 1520 1522 1524 1526 1527 1529 1530 1531 1532 1533 1534 1534 1535 1535 1536 1536 1536 1536 1536 1536 1536 1536 1536 1535 1535 1535 1536 1536 1536 1537 1537 1538 1538
1524 1515 1515 1517 1525 1531 1525 1539 1523 1516 1514 1512 1512 1513 1514 1516 1518 1520 1522 1524 1525 1527 1529 1530 1531 1532 1533 1533 1534 1534 1534 1534 1535 1535 1535 1535 1535 1535 1535 1535 1535 1535 1535 1536 1536 1537 1537 1537 1537
1515 1510 1512 1515 1523 1530 1527 1535 1529 1517 1516 1512 1510 1511 1512 1514 1516 1517 1519 1522 1523 1525 1527 1529 1530 1531 1531 1532 1532 1533 1533 1533 1534 1534 1534 1534 1534 1534 1534 1534 1534 1534 1534 1535 1535 1535 1536 1536 1537
1509 1513 1516 1522 1529 1539 1528 1534 1532 1519 1511 1508 1508 1509 1510 1512 1514 1516 1518 1520 1522 1524 1525 1527 1528 1529 1530 1530 1531 1531 1531 1532 1532 1532 1533 1533 1533 1533 1533 1533 1533 1533 1534 1534 1534 1534 1535 1535 1535
1512 1528 1543 1544 1548 1543 1524 1528 1525 1508 1503 1503 1504 1506 1508 1510 1512 1514 1516 1518 1520 1521 1523 1524 1526 1527 1528 1529 1529 1530 1530 1530 1531 1531 1531 1531 1531 1531 1531 1532 1532 1532 1532 1533 1533 1533 1533 1534 1534
1514 1525 1545 1552 1551 1542 1528 1528 1516 1503 1500 1500 1502 1504 1506 1508 1510 1511 1513 1515 1517 1519 1521 1522 1523 1524 1526 1526 1527 1528 1529 1529 1529 1529 1530 1530 1530 1530 1530 1530 1530 1530 1531 1531 1531 1532 1532 1532 1532
1515 1521 1523 1536 1537 1542 1535 1523 1511 1502 1502 1502 1503 1504 1505 1506 1507 1509 1511 1513 1515 1517 1518 1520 1521 1522 1523 1524 1525 1526 1527 1527 1527 1528 1528 1528 1528 1528 1529 1529 1529 1529 1529 1529 1530 1530 1530 1531 1531
1507 1513 1527 1535 1544 1549 1538 1529 1523 1509 1505 1503 1503 1503 1503 1504 1506 1508 1509 1511 1513 1515 1516 1518 1519 1520 1521 1522 1523 1524 1525 1525 1526 1526 1526 1526 1526 1527 1527 1527 1527 1527 1527 1527 1528 1528 1528 1529 1529
1512 1515 1521 1532 1536 1545 1546 1534 1507 1505 1502 1501 1501 1501 1502 1502 1504 1506 1507 1509 1511 1513 1514 1515 1516 1517 1518 1519 1520 1521 1522 1523 1524 1524 1524 1524 1524 1524 1525 1525 1525 1525 1525 1525 1526 1526 1527 1527 1527
1507 1511 1519 1532 1534 1535 1541 1532 1500 1499 1498 1499 1499 1500 1500 1501 1502 1504 1505 1507 1509 1510 1511 1512 1514 1515 1516 1517 1518 1519 1520 1520 1521 1521 1521 1522 1522 1522 1522 1522 1522 1523 1523 1524 1524 1524 1525 1525 1525